GW2525 Weather Reports


Display with metric or nautical units.
time (UTC)temp
F
wind
direction
speed
MPH
gust
MPH
rain 1hr
in
rain 24hr
in
rain mn
in
humidity
%
barometer
mb
20260506145003 60 125 10.0 16.0 0.00 0.04 0.01 76 1009.2
20260506144503 60 117 10.0 16.0 0.00 0.04 0.01 75 1009.2
20260506144003 60 123 11.0 16.0 0.00 0.04 0.01 76 1009.2
20260506143503 60 124 11.0 16.0 0.00 0.04 0.01 75 1009.2
20260506143004 60 111 10.0 17.0 0.00 0.04 0.01 74 1009.2
20260506142503 61 119 11.0 17.0 0.00 0.04 0.01 73 1009.1
20260506142003 60 127 11.0 18.0 0.00 0.04 0.01 74 1009.2
20260506141503 61 122 11.0 20.0 0.00 0.04 0.01 74 1009.2
20260506141003 60 127 11.0 20.0 0.00 0.04 0.01 74 1009.3
20260506140503 60 125 10.0 16.0 0.00 0.04 0.01 74 1009.5
20260506140005 60 116 10.0 19.0 0.00 0.04 0.01 76 1009.6
20260506135503 60 106 11.0 19.0 0.00 0.05 0.01 76 1009.6
20260506135003 60 110 9.0 16.0 0.00 0.05 0.01 76 1009.7
20260506134503 61 124 8.0 13.0 0.00 0.05 0.01 75 1009.7
20260506134003 61 112 8.0 13.0 0.00 0.05 0.01 74 1009.8
20260506133503 61 113 9.0 15.0 0.00 0.05 0.01 75 1009.8
20260506133004 60 120 8.0 15.0 0.00 0.05 0.01 75 1009.8
20260506132503 61 110 7.0 13.0 0.00 0.05 0.01 75 1009.9
20260506132003 61 105 8.0 14.0 0.00 0.05 0.01 74 1009.8
20260506131503 60 116 8.0 14.0 0.00 0.07 0.01 74 1009.9
20260506131003 60 132 7.0 14.0 0.00 0.09 0.01 75 1010.0
20260506130503 60 133 7.0 14.0 0.00 0.09 0.01 75 1010.2
20260506130005 60 126 8.0 14.0 0.00 0.11 0.01 75 1010.2
20260506125503 59 114 8.0 14.0 0.00 0.18 0.01 76 1010.2
20260506125004 59 109 9.0 16.0 0.00 0.30 0.01 77 1010.2
20260506124714 59 115 8.0 16.0 0.00 0.33 0.01 78 1010.2
20260506124003 59 127 9.0 15.0 0.00 0.33 0.01 78 1010.3
20260506123504 59 130 9.0 15.0 0.00 0.33 0.01 76 1010.3
20260506123004 60 116 8.0 15.0 0.00 0.33 0.01 76 1010.4
20260506122503 60 118 8.0 15.0 0.00 0.33 0.01 76 1010.3
20260506122004 59 122 9.0 14.0 0.00 0.33 0.01 78 1010.3
20260506121503 59 116 8.0 12.0 0.00 0.33 0.01 78 1010.4
20260506121003 58 115 8.0 12.0 0.00 0.33 0.01 77 1010.4
20260506120504 58 125 8.0 15.0 0.00 0.33 0.01 77 1010.4
20260506120005 58 136 8.0 15.0 0.00 0.33 0.01 78 1010.4
20260506115503 58 129 9.0 15.0 0.00 0.33 0.01 78 1010.4
20260506115003 58 127 10.0 15.0 0.00 0.33 0.01 78 1010.4
20260506114503 58 127 10.0 16.0 0.00 0.33 0.01 77 1010.4
20260506114004 58 119 11.0 20.0 0.00 0.33 0.01 77 1010.4
20260506113503 59 110 10.0 20.0 0.00 0.33 0.01 76 1010.4
20260506113004 60 111 10.0 19.0 0.00 0.33 0.01 76 1010.5
20260506112503 59 119 10.0 16.0 0.00 0.33 0.01 76 1010.6
20260506112003 59 122 11.0 17.0 0.00 0.33 0.01 74 1010.6
20260506111503 59 123 11.0 17.0 0.00 0.33 0.01 74 1010.5
20260506111003 60 119 9.0 17.0 0.00 0.33 0.01 74 1010.6
20260506110504 61 122 6.0 14.0 0.00 0.33 0.01 69 1010.6
20260506110004 61 153 4.0 10.0 0.00 0.33 0.01 59 1010.7
20260506105714 60 153 3.0 10.0 0.00 0.33 0.01 59 1010.7
20260506105004 59 269 2.0 8.0 0.00 0.33 0.01 58 1010.7
20260506104503 59 296 2.0 8.0 0.00 0.33 0.01 61 1010.8
20260506104003 59 327 1.0 5.0 0.00 0.33 0.01 65 1010.8
20260506103503 59 14 1.0 5.0 0.00 0.33 0.01 64 1010.7
20260506103214 59 192 0.0 4.0 0.00 0.33 0.01 67 1010.8
20260506102714 59 89 0.0 3.0 0.00 0.33 0.01 66 1010.8
20260506102003 58 135 2.0 8.0 0.00 0.33 0.01 67 1010.9
20260506101503 58 138 4.0 11.0 0.00 0.33 0.01 68 1010.9
20260506101004 58 136 3.0 11.0 0.00 0.33 0.01 72 1011.0
20260506100504 58 114 0.0 6.0 0.00 0.33 0.01 70 1011.0
20260506100005 58 101 0.0 3.0 0.00 0.33 0.01 68 1011.0
20260506095503 58 131 0.0 4.0 0.00 0.33 0.01 67 1011.0
20260506095003 58 123 1.0 5.0 0.00 0.33 0.01 65 1011.0
20260506094503 58 102 2.0 8.0 0.00 0.33 0.01 65 1011.0
20260506094003 58 101 2.0 8.0 0.00 0.33 0.01 69 1011.0
20260506093503 58 345 1.0 5.0 0.00 0.33 0.01 65 1011.0
20260506093004 58 293 2.0 8.0 0.00 0.33 0.01 66 1011.0
20260506092503 59 263 1.0 8.0 0.00 0.33 0.01 69 1011.0
20260506092003 58 116 0.0 4.0 0.00 0.33 0.01 71 1011.0
20260506091503 58 74 1.0 5.0 0.00 0.33 0.01 71 1011.0
20260506091003 57 90 2.0 7.0 0.00 0.33 0.01 72 1011.1
20260506090503 56 104 3.0 7.0 0.00 0.33 0.01 73 1011.0
20260506090004 56 124 4.0 10.0 0.00 0.33 0.01 74 1011.0
20260506085504 56 122 5.0 10.0 0.00 0.33 0.01 72 1011.0
20260506085214 56 123 3.0 8.0 0.00 0.33 0.01 74 1010.9
20260506084503 55 143 3.0 9.0 0.00 0.33 0.01 75 1010.9
20260506084004 56 140 5.0 11.0 0.00 0.33 0.01 75 1010.9
20260506083503 55 136 3.0 11.0 0.00 0.33 0.01 75 1010.9
20260506083004 55 241 3.0 10.0 0.00 0.33 0.01 74 1010.9
20260506082503 55 235 4.0 10.0 0.00 0.33 0.01 74 1010.7
20260506082214 55 222 5.0 10.0 0.00 0.33 0.01 73 1010.8
20260506081713 54 182 4.0 10.0 0.00 0.33 0.01 73 1010.7
20260506081003 55 163 1.0 8.0 0.00 0.33 0.01 77 1010.7
20260506080503 55 163 0.0 6.0 0.00 0.33 0.01 73 1010.7
20260506073503 53 247 5.0 12.0 0.00 0.33 0.01 76 1010.6
20260506073004 53 270 7.0 14.0 0.00 0.33 0.01 77 1010.7
20260506072503 52 283 8.0 14.0 0.00 0.33 0.01 77 1010.6
20260506072004 52 287 8.0 19.0 0.00 0.33 0.01 79 1010.6
20260506071504 52 292 9.0 19.0 0.00 0.33 0.01 78 1010.5
20260506071213 52 291 9.0 19.0 0.00 0.33 0.01 78 1010.4
20260506070714 52 286 10.0 18.0 0.00 0.33 0.01 78 1010.4
20260506062003 50 265 9.0 17.0 0.00 0.33 0.01 81 1010.5
20260506061714 50 273 9.0 17.0 0.00 0.33 0.01 82 1010.6
20260506061003 51 287 9.0 16.0 0.00 0.33 0.01 81 1010.6
20260506060503 51 283 7.0 14.0 0.00 0.33 0.01 82 1010.5
20260506051004 49 280 4.0 14.0 0.00 0.33 0.01 90 1009.7
20260506050713 48 273 4.0 12.0 0.00 0.33 0.01 92 1009.8
20260506045003 49 272 3.0 9.0 0.00 0.33 0.01 87 1009.6
20260506044504 50 267 6.0 10.0 0.00 0.33 0.01 87 1009.6
20260506044004 50 264 8.0 13.0 0.00 0.33 0.01 86 1009.6
20260506043503 50 253 8.0 13.0 0.00 0.33 0.01 86 1009.5
20260506043004 51 239 9.0 13.0 0.00 0.33 0.01 85 1009.6
20260506042713 51 243 9.0 13.0 0.00 0.33 0.01 85 1009.6
20260506042003 51 257 10.0 16.0 0.00 0.33 0.01 85 1009.6
20260506041503 51 260 8.0 16.0 0.00 0.33 0.01 86 1009.5
20260506041004 49 266 7.0 13.0 0.00 0.33 0.01 88 1009.6
20260506040503 51 270 7.0 12.0 0.00 0.33 0.01 85 1009.4
20260506040004 50 270 6.0 15.0 0.00 0.33 0.01 87 1009.4
20260506035503 50 276 7.0 15.0 0.00 0.34 0.01 88 1009.3
20260506035004 50 273 5.0 14.0 0.00 0.34 0.01 88 1009.3
20260506034503 49 273 3.0 10.0 0.00 0.34 0.01 90 1009.3
20260506034003 50 268 2.0 10.0 0.00 0.34 0.01 90 1009.4
20260506033503 49 255 3.0 9.0 0.00 0.34 0.01 90 1009.4
20260506033005 50 278 7.0 14.0 0.00 0.34 0.01 88 1009.3
20260506032503 51 287 9.0 17.0 0.00 0.34 0.01 88 1009.3
20260506032004 50 276 10.0 18.0 0.00 0.34 0.01 89 1009.2
20260506031503 50 274 8.0 18.0 0.00 0.34 0.01 92 1009.3
20260506031003 49 283 7.0 12.0 0.00 0.34 0.01 92 1009.3
20260506030503 48 275 5.0 10.0 0.00 0.34 0.01 96 1009.3
20260506030004 46 273 4.0 9.0 0.00 0.34 0.01 95 1009.5
20260506025503 47 285 3.0 9.0 0.00 0.34 0.01 96 1009.5
20260506025003 47 296 3.0 7.0 0.00 0.34 0.01 96 1009.4
20260506024503 47 289 3.0 9.0 0.00 0.34 0.01 98 1009.4
20260506024003 47 287 4.0 9.0 0.00 0.34 0.01 97 1009.4
20260506023713 47 290 4.0 9.0 0.00 0.34 0.01 98 1009.3
20260506023004 45 282 4.0 8.0 0.00 0.34 0.01 97 1009.2
20260506022503 45 282 4.0 8.0 0.00 0.34 0.01 98 1009.1
20260506022003 44 282 4.0 7.0 0.00 0.34 0.01 97 1009.2
20260506021504 45 283 4.0 7.0 0.00 0.34 0.01 98 1009.2
20260506021214 44 283 4.0 8.0 0.00 0.34 0.01 97 1009.1
20260506020504 44 285 4.0 8.0 0.00 0.34 0.01 97 1009.2
20260506020004 44 289 3.0 7.0 0.00 0.34 0.01 98 1009.2
20260506015503 44 293 3.0 7.0 0.00 0.34 0.01 98 1009.3
20260506015004 44 291 2.0 5.0 0.00 0.34 0.01 98 1009.4
20260506014503 44 279 1.0 3.0 0.00 0.34 0.01 97 1009.4
20260506014004 44 279 1.0 3.0 0.00 0.34 0.01 98 1009.5
20260506013503 44 279 1.0 2.0 0.00 0.34 0.01 97 1009.4
20260506013004 44 279 1.0 2.0 0.00 0.34 0.01 97 1009.4
20260506012503 44 279 1.0 2.0 0.00 0.34 0.01 97 1009.4
20260506012004 44 279 1.0 3.0 0.01 0.34 0.01 97 1009.5
20260506011503 44 284 2.0 4.0 0.01 0.34 0.01 97 1009.4
20260506011213 44 290 2.0 4.0 0.01 0.34 0.01 97 1009.4
20260506010504 44 334 1.0 3.0 0.01 0.34 0.01 97 1009.6
20260506010005 44 305 1.0 4.0 0.01 0.34 0.01 97 1009.6
20260506005503 44 279 1.0 4.0 0.01 0.34 0.01 97 1009.6
20260506005213 44 278 1.0 3.0 0.01 0.34 0.01 97 1009.5
20260506004504 44 278 0.0 2.0 0.01 0.35 0.01 97 1009.6
20260506004003 45 278 0.0 2.0 0.01 0.35 0.01 97 1009.7
20260506003503 45 278 2.0 3.0 0.01 0.35 0.01 97 1009.7
20260506003004 45 292 3.0 5.0 0.01 0.35 0.01 97 1009.6
20260506002503 45 285 3.0 7.0 0.01 0.35 0.01 97 1009.7
20260506002003 45 288 2.0 7.0 0.00 0.34 0.00 97 1009.7
20260506001504 45 302 3.0 6.0 0.00 0.34 0.00 97 1009.7
20260506001003 45 295 2.0 6.0 0.00 0.34 0.00 97 1009.8
20260506000503 46 282 2.0 4.0 0.00 0.34 0.00 97 1009.6
20260506000004 46 272 2.0 4.0 0.00 0.34 0.00 97 1009.9
20260505235503 46 284 0.0 2.0 0.00 0.34 0.00 97 1009.8
20260505235004 46 273 1.0 3.0 0.00 0.34 0.00 97 1009.8
20260505234503 46 267 1.0 3.0 0.00 0.34 0.00 97 1009.9
20260505234003 46 263 1.0 4.0 0.00 0.34 0.00 97 1009.9
20260505233714 46 268 1.0 4.0 0.00 0.34 0.00 97 1009.9
20260505233214 46 274 1.0 4.0 0.00 0.34 0.00 97 1009.9
20260505232503 47 295 1.0 3.0 0.00 0.34 0.00 97 1010.0
20260505232003 47 297 2.0 3.0 0.00 0.34 0.00 97 1010.0
20260505231504 47 300 1.0 3.0 0.00 0.34 0.00 97 1010.0
20260505231004 47 300 1.0 3.0 0.00 0.34 0.00 96 1010.1
20260505230503 47 300 0.0 1.0 0.00 0.34 0.00 97 1010.0
20260505230004 48 300 1.0 2.0 0.00 0.34 0.00 96 1010.1
20260505225504 48 300 1.0 3.0 0.00 0.34 0.00 97 1010.0
20260505225004 48 290 1.0 4.0 0.00 0.34 0.00 97 1010.1
20260505224504 48 272 1.0 4.0 0.00 0.34 0.00 96 1010.1
20260505224214 48 262 1.0 4.0 0.00 0.34 0.00 97 1010.1
20260505223504 48 259 0.0 2.0 0.00 0.34 0.00 97 1010.2
20260505223004 48 259 1.0 2.0 0.00 0.34 0.00 96 1010.2
20260505222504 48 259 1.0 2.0 0.00 0.34 0.00 96 1010.3
20260505222004 48 259 1.0 2.0 0.00 0.34 0.00 96 1010.5
20260505221503 48 259 1.0 2.0 0.00 0.34 0.00 96 1010.5
20260505221003 48 259 1.0 2.0 0.00 0.34 0.00 96 1010.4
20260505220713 48 259 0.0 2.0 0.00 0.34 0.00 96 1010.6
20260505220216 48 259 0.0 2.0 0.00 0.34 0.00 96 1010.6
20260505215503 48 259 0.0 1.0 0.00 0.34 0.34 96 1010.5
20260505215003 48 259 0.0 1.0 0.00 0.34 0.34 96 1010.7
20260505214504 48 259 0.0 1.0 0.00 0.34 0.34 96 1010.7
20260505214004 48 0 0.0 0.0 0.00 0.34 0.34 96 1010.7
20260505213503 48 259 0.0 2.0 0.00 0.34 0.34 96 1010.7
20260505213214 48 255 1.0 4.0 0.00 0.34 0.34 96 1010.7
20260505212504 48 261 2.0 4.0 0.00 0.34 0.34 95 1010.7
20260505212004 49 275 1.0 4.0 0.00 0.34 0.34 95 1010.7
20260505211713 49 287 1.0 4.0 0.00 0.34 0.34 95 1010.7
20260505211003 49 295 3.0 4.0 0.00 0.34 0.34 95 1010.6
20260505210503 49 305 2.0 4.0 0.00 0.34 0.34 94 1010.6
20260505210004 49 315 1.0 3.0 0.00 0.35 0.34 94 1010.6
20260505205503 49 315 1.0 2.0 0.00 0.37 0.34 94 1010.6
20260505205004 49 314 1.0 4.0 0.00 0.39 0.34 94 1010.5
20260505204503 49 283 2.0 6.0 0.00 0.40 0.34 94 1010.3
20260505204003 50 257 3.0 6.0 0.00 0.40 0.34 94 1010.2
20260505203503 50 250 2.0 5.0 0.00 0.40 0.34 93 1010.0
20260505203004 50 295 1.0 5.0 0.00 0.40 0.34 93 1009.9
20260505202503 50 6 1.0 4.0 0.00 0.40 0.34 93 1009.8
20260505202003 50 305 0.0 3.0 0.00 0.40 0.34 93 1009.8
20260505201503 50 297 2.0 6.0 0.00 0.40 0.34 93 1009.6
20260505201003 50 283 4.0 8.0 0.00 0.40 0.34 93 1009.2
20260505200503 50 277 4.0 8.0 0.00 0.40 0.34 93 1009.3
20260505200004 50 277 2.0 8.0 0.00 0.40 0.34 93 1009.3
20260505195503 51 0 0.0 0.0 0.00 0.40 0.34 92 1009.2
20260505195003 51 306 0.0 2.0 0.01 0.40 0.34 91 1009.4
20260505194714 51 280 0.0 3.0 0.02 0.40 0.34 91 1009.3
20260505194004 51 298 0.0 3.0 0.03 0.40 0.34 91 1009.2
20260505193714 51 52 0.0 3.0 0.03 0.40 0.34 91 1009.2
20260505193004 51 354 1.0 4.0 0.03 0.40 0.34 90 1009.3
20260505192504 51 294 1.0 4.0 0.03 0.40 0.34 91 1009.2
20260505192004 51 285 1.0 3.0 0.03 0.40 0.34 92 1009.1
20260505191714 51 277 1.0 4.0 0.03 0.40 0.34 91 1009.1
20260505191003 51 309 3.0 6.0 0.03 0.40 0.34 91 1008.8
20260505190503 51 13 3.0 6.0 0.03 0.40 0.34 89 1008.7
20260505190004 51 299 3.0 9.0 0.03 0.40 0.34 89 1008.6
20260505185503 52 260 3.0 9.0 0.03 0.40 0.34 87 1008.7
20260505185003 52 356 3.0 9.0 0.02 0.39 0.33 86 1008.5
20260505184714 52 294 3.0 9.0 0.02 0.39 0.33 84 1008.7
20260505184212 53 279 6.0 17.0 0.01 0.38 0.31 83 1008.9
20260505183503 54 266 14.0 26.0 0.00 0.37 0.31 78 1008.8
20260505183004 55 263 12.0 26.0 0.00 0.37 0.31 77 1008.7
20260505182503 56 245 8.0 20.0 0.00 0.37 0.31 74 1009.0
20260505182003 56 255 8.0 20.0 0.00 0.37 0.31 74 1009.0
20260505181503 56 278 4.0 11.0 0.00 0.37 0.31 76 1009.1
20260505181215 56 297 3.0 9.0 0.00 0.37 0.31 81 1009.0
20260505180504 56 67 1.0 4.0 0.00 0.37 0.31 91 1008.7
20260505180004 56 124 0.0 2.0 0.00 0.37 0.31 91 1008.7
20260505175503 57 124 0.0 2.0 0.00 0.37 0.31 91 1008.5
20260505175003 57 117 1.0 5.0 0.00 0.37 0.31 90 1008.4
20260505174504 57 106 3.0 7.0 0.00 0.37 0.31 90 1008.3
20260505174214 57 99 4.0 8.0 0.00 0.37 0.31 90 1008.3
20260505173503 57 97 4.0 8.0 0.00 0.37 0.31 89 1008.2
20260505173004 57 116 4.0 7.0 0.00 0.37 0.31 89 1008.2
20260505172503 58 121 4.0 7.0 0.00 0.37 0.31 88 1008.4
20260505172003 58 112 5.0 9.0 0.00 0.37 0.31 88 1008.5
20260505171503 58 125 5.0 10.0 0.00 0.37 0.31 87 1008.4
20260505171004 58 147 3.0 10.0 0.00 0.37 0.31 86 1008.4
20260505170503 58 146 3.0 6.0 0.00 0.37 0.31 87 1008.4
20260505170005 58 112 3.0 8.0 0.00 0.37 0.31 85 1008.3
20260505165503 58 103 5.0 10.0 0.00 0.37 0.31 85 1008.3
20260505165004 58 105 6.0 10.0 0.00 0.37 0.31 85 1008.3
20260505164503 58 105 5.0 8.0 0.00 0.37 0.31 85 1008.5
20260505164003 58 110 3.0 7.0 0.00 0.37 0.31 85 1008.5
20260505163503 58 116 4.0 8.0 0.00 0.37 0.31 86 1008.5
20260505163004 58 122 4.0 8.0 0.00 0.37 0.31 87 1008.6
20260505162503 58 118 4.0 8.0 0.00 0.37 0.31 86 1008.5
20260505162003 58 101 5.0 10.0 0.00 0.37 0.31 86 1008.5
20260505161504 58 103 7.0 11.0 0.00 0.37 0.31 86 1008.5
20260505161003 58 106 7.0 11.0 0.00 0.37 0.31 87 1008.6
20260505160503 58 106 6.0 10.0 0.00 0.37 0.31 87 1008.7
20260505153004 59 110 6.0 9.0 0.00 0.38 0.31 85 1008.5
20260505152503 59 107 7.0 13.0 0.00 0.38 0.31 84 1008.5
20260505152003 59 105 6.0 13.0 0.00 0.39 0.31 83 1008.5
20260505151503 60 103 6.0 12.0 0.00 0.40 0.31 84 1008.5
20260505151003 59 103 6.0 12.0 0.00 0.42 0.31 84 1008.5
20260505150503 59 107 6.0 10.0 0.00 0.43 0.31 85 1008.4